When you browse on this site, cookies collect data to enhance your experience and personalize the content and advertising you see.
Visit our Privacy Policy to learn more. By continuing to use the site, you agree to this use of cookies and data.
  • In Österreich
  • Länderverzeichnis
  • Für 7 Tage
  • Wassertemperatur
  • Satellitenkarten
  • Wetterkarte
  • News
  • Widgets
  • user-avatar
    Anmelden

    Stündliche Wetter Tamarac

    Heute, 20 April, Samstag

    Zeit Temperatur Niederschläge Wind Luftdruck Luftfeuchtigkeit
    00:00 +25°C° 0.4 mm 5 m/S 759 mmHg 74%
    01:00 +23°C° 0 mm 2 m/S 759 mmHg 74%
    02:00 +22°C° 0.2 mm 3 m/S 759 mmHg 70%
    03:00 +22°C° 0.2 mm 3 m/S 759 mmHg 66%
    04:00 +22°C° 0.2 mm 3 m/S 760 mmHg 62%
    05:00 +22°C° 0 mm 3 m/S 760 mmHg 61%
    06:00 +22°C° 0 mm 3 m/S 761 mmHg 59%
    07:00 +23°C° 0 mm 1 m/S 761 mmHg 58%
    08:00 +25°C° 0 mm 3 m/S 761 mmHg 52%
    09:00 +26°C° 0 mm 4 m/S 761 mmHg 47%
    10:00 +27°C° 0 mm 6 m/S 762 mmHg 42%
    11:00 +29°C° 0 mm 5 m/S 762 mmHg 38%
    12:00 +30°C° 0 mm 5 m/S 761 mmHg 35%
    13:00 +32°C° 0 mm 5 m/S 761 mmHg 31%
    14:00 +32°C° 0 mm 5 m/S 761 mmHg 32%
    15:00 +30°C° 0 mm 5 m/S 761 mmHg 34%
    16:00 +30°C° 0 mm 5 m/S 761 mmHg 35%
    17:00 +28°C° 0 mm 6 m/S 761 mmHg 39%
    18:00 +27°C° 0 mm 6 m/S 761 mmHg 43%
    19:00 +24°C° 0 mm 6 m/S 761 mmHg 47%
    20:00 +23°C° 0 mm 6 m/S 762 mmHg 48%
    21:00 +23°C° 0 mm 5 m/S 762 mmHg 49%
    22:00 +22°C° 0 mm 5 m/S 763 mmHg 51%
    23:00 +21°C° 0 mm 5 m/S 763 mmHg 52%

    Morgen, 21 April, Sonntag

    Zeit Temperatur Niederschläge Wind Luftdruck Luftfeuchtigkeit
    00:00 +21°C° 0 mm 5 m/S 763 mmHg 53%
    01:00 +20°C° 0 mm 4 m/S 763 mmHg 53%
    02:00 +20°C° 0 mm 4 m/S 763 mmHg 53%
    03:00 +20°C° 0 mm 3 m/S 763 mmHg 53%
    04:00 +19°C° 0 mm 2 m/S 763 mmHg 53%
    05:00 +20°C° 0 mm 2 m/S 763 mmHg 53%
    06:00 +20°C° 0 mm 2 m/S 763 mmHg 53%
    07:00 +20°C° 0 mm 3 m/S 764 mmHg 53%
    08:00 +22°C° 0 mm 3 m/S 764 mmHg 50%
    09:00 +24°C° 0 mm 3 m/S 764 mmHg 47%
    10:00 +25°C° 0 mm 3 m/S 765 mmHg 44%
    11:00 +26°C° 0 mm 3 m/S 765 mmHg 39%
    12:00 +28°C° 0 mm 3 m/S 765 mmHg 34%
    13:00 +29°C° 0 mm 3 m/S 764 mmHg 28%
    14:00 +29°C° 0 mm 3 m/S 764 mmHg 27%
    15:00 +29°C° 0 mm 3 m/S 764 mmHg 25%
    16:00 +30°C° 0 mm 3 m/S 763 mmHg 24%
    17:00 +29°C° 0 mm 3 m/S 763 mmHg 26%
    18:00 +28°C° 0 mm 3 m/S 763 mmHg 29%
    19:00 +27°C° 0 mm 3 m/S 764 mmHg 31%
    20:00 +26°C° 0 mm 3 m/S 764 mmHg 34%
    21:00 +25°C° 0 mm 3 m/S 765 mmHg 37%
    22:00 +25°C° 0 mm 3 m/S 765 mmHg 40%
    23:00 +24°C° 0 mm 3 m/S 765 mmHg 44%

    übermorgen, 22 April, Montag

    Zeit Temperatur Niederschläge Wind Luftdruck Luftfeuchtigkeit
    00:00 +24°C° 0 mm 3 m/S 765 mmHg 47%
    01:00 +23°C° 0 mm 2 m/S 765 mmHg 51%
    02:00 +23°C° 0 mm 2 m/S 764 mmHg 52%
    03:00 +23°C° 0 mm 2 m/S 764 mmHg 53%
    04:00 +23°C° 0 mm 2 m/S 764 mmHg 54%
    05:00 +23°C° 0 mm 2 m/S 764 mmHg 54%
    06:00 +23°C° 0 mm 2 m/S 765 mmHg 54%
    07:00 +22°C° 0 mm 3 m/S 765 mmHg 54%
    08:00 +24°C° 0 mm 3 m/S 765 mmHg 47%
    09:00 +26°C° 0 mm 3 m/S 765 mmHg 41%
    10:00 +28°C° 0 mm 3 m/S 766 mmHg 35%
    11:00 +29°C° 0 mm 4 m/S 765 mmHg 33%
    12:00 +29°C° 0 mm 4 m/S 765 mmHg 31%
    13:00 +30°C° 0 mm 4 m/S 765 mmHg 30%
    14:00 +30°C° 0 mm 5 m/S 764 mmHg 31%
    15:00 +30°C° 0 mm 5 m/S 763 mmHg 33%
    16:00 +29°C° 0 mm 5 m/S 763 mmHg 35%
    17:00 +28°C° 0 mm 5 m/S 763 mmHg 39%
    18:00 +27°C° 0 mm 5 m/S 763 mmHg 43%
    19:00 +26°C° 0 mm 6 m/S 763 mmHg 47%
    20:00 +25°C° 0 mm 5 m/S 764 mmHg 49%
    21:00 +25°C° 0 mm 5 m/S 764 mmHg 51%
    22:00 +23°C° 0 mm 5 m/S 765 mmHg 53%
    23:00 +23°C° 0 mm 5 m/S 764 mmHg 55%

    23 April, Dienstag

    Zeit Temperatur Niederschläge Wind Luftdruck Luftfeuchtigkeit
    00:00 +23°C° 0 mm 4 m/S 764 mmHg 57%
    01:00 +23°C° 0 mm 4 m/S 764 mmHg 59%
    02:00 +22°C° 0 mm 4 m/S 763 mmHg 59%
    03:00 +22°C° 0 mm 4 m/S 763 mmHg 60%
    04:00 +22°C° 0 mm 3 m/S 763 mmHg 61%
    05:00 +22°C° 0 mm 4 m/S 763 mmHg 60%
    06:00 +23°C° 0 mm 4 m/S 763 mmHg 59%
    07:00 +23°C° 0 mm 4 m/S 764 mmHg 58%
    08:00 +25°C° 0 mm 4 m/S 764 mmHg 55%
    09:00 +26°C° 0 mm 4 m/S 764 mmHg 52%
    10:00 +27°C° 0 mm 5 m/S 765 mmHg 50%
    11:00 +28°C° 0 mm 5 m/S 764 mmHg 47%
    12:00 +29°C° 0 mm 5 m/S 764 mmHg 45%
    13:00 +30°C° 0 mm 5 m/S 763 mmHg 43%
    14:00 +29°C° 0 mm 5 m/S 763 mmHg 44%
    15:00 +29°C° 0 mm 5 m/S 762 mmHg 45%
    16:00 +29°C° 0 mm 5 m/S 762 mmHg 46%
    17:00 +28°C° 0 mm 5 m/S 762 mmHg 49%
    18:00 +27°C° 0 mm 5 m/S 762 mmHg 52%
    19:00 +26°C° 0 mm 5 m/S 763 mmHg 55%
    20:00 +26°C° 0 mm 4 m/S 763 mmHg 57%
    21:00 +25°C° 0 mm 4 m/S 763 mmHg 58%
    22:00 +25°C° 0 mm 4 m/S 764 mmHg 60%
    23:00 +23°C° 0 mm 4 m/S 763 mmHg 61%

    24 April, Mittwoch

    Zeit Temperatur Niederschläge Wind Luftdruck Luftfeuchtigkeit
    00:00 +24°C° 0 mm 3 m/S 763 mmHg 61%
    01:00 +24°C° 0 mm 3 m/S 763 mmHg 61%
    02:00 +24°C° 0 mm 3 m/S 762 mmHg 62%
    03:00 +24°C° 0 mm 3 m/S 762 mmHg 63%
    04:00 +22°C° 0 mm 3 m/S 762 mmHg 63%
    05:00 +24°C° 0 mm 3 m/S 762 mmHg 63%
    06:00 +24°C° 0 mm 3 m/S 762 mmHg 63%
    07:00 +24°C° 0 mm 3 m/S 763 mmHg 63%
    08:00 +25°C° 0 mm 3 m/S 763 mmHg 59%
    09:00 +26°C° 0 mm 4 m/S 763 mmHg 56%
    10:00 +27°C° 0 mm 4 m/S 763 mmHg 53%
    11:00 +28°C° 0 mm 4 m/S 763 mmHg 48%
    12:00 +29°C° 0 mm 4 m/S 763 mmHg 44%
    13:00 +30°C° 0 mm 4 m/S 762 mmHg 40%
    14:00 +30°C° 0 mm 4 m/S 762 mmHg 40%
    15:00 +30°C° 0 mm 4 m/S 762 mmHg 41%
    16:00 +30°C° 0 mm 4 m/S 761 mmHg 41%
    17:00 +29°C° 0 mm 4 m/S 761 mmHg 45%
    18:00 +28°C° 0 mm 4 m/S 762 mmHg 49%
    19:00 +26°C° 0 mm 4 m/S 762 mmHg 54%
    20:00 +26°C° 0 mm 4 m/S 762 mmHg 55%
    21:00 +26°C° 0 mm 4 m/S 763 mmHg 57%
    22:00 +25°C° 0 mm 3 m/S 763 mmHg 58%
    23:00 +25°C° 0 mm 3 m/S 762 mmHg 60%

    25 April, Donnerstag

    Zeit Temperatur Niederschläge Wind Luftdruck Luftfeuchtigkeit
    00:00 +25°C° 0 mm 3 m/S 762 mmHg 61%
    01:00 +24°C° 0 mm 2 m/S 762 mmHg 62%
    02:00 +24°C° 0 mm 2 m/S 761 mmHg 64%
    03:00 +24°C° 0 mm 2 m/S 761 mmHg 65%
    04:00 +24°C° 0 mm 2 m/S 761 mmHg 67%
    05:00 +24°C° 0 mm 2 m/S 761 mmHg 65%
    06:00 +25°C° 0 mm 2 m/S 762 mmHg 64%
    07:00 +25°C° 0 mm 2 m/S 762 mmHg 63%
    08:00 +27°C° 0 mm 2 m/S 762 mmHg 57%
    09:00 +28°C° 0 mm 3 m/S 763 mmHg 51%
    10:00 +29°C° 0 mm 3 m/S 763 mmHg 45%
    11:00 +30°C° 0 mm 3 m/S 763 mmHg 43%
    12:00 +32°C° 0 mm 4 m/S 762 mmHg 40%
    13:00 +33°C° 0 mm 4 m/S 762 mmHg 37%
    14:00 +33°C° 0 mm 4 m/S 762 mmHg 38%
    15:00 +32°C° 0 mm 4 m/S 761 mmHg 38%
    16:00 +32°C° 0 mm 4 m/S 761 mmHg 39%
    17:00 +30°C° 0 mm 4 m/S 761 mmHg 44%
    18:00 +29°C° 0 mm 4 m/S 761 mmHg 49%
    19:00 +27°C° 0 mm 4 m/S 762 mmHg 54%
    20:00 +27°C° 0 mm 4 m/S 762 mmHg 55%
    21:00 +27°C° 0 mm 3 m/S 762 mmHg 57%
    22:00 +26°C° 0 mm 3 m/S 762 mmHg 59%
    23:00 +26°C° 0 mm 3 m/S 762 mmHg 60%
    Mehr zeigen